Total_Precipitation_Accumulation
0.04 0.05 0.06 0.07 0.08 0.11 0.12 0.14 0.22 0.29 0.31 0.35 0.48 0.68 0.89 0.96 1.14 1.23 1.39 1.45 1.74 1.90 2.03 2.35 2.82 3.27 3.75 3.83 3.93 3.89 4.01 4.25 4.43 4.59 4.57 4.72 4.70 4.64 4.81 5.00 5.00 5.11 5.16 4.97
0.04 0.04 0.04 0.04 0.05 0.10 0.13 0.16 0.27 0.39 0.44 0.49 0.57 0.75 0.95 1.08 1.10 1.36 1.62 1.67 2.15 2.29 2.22 2.41 2.92 3.33 3.75 3.98 4.09 4.26 4.36 4.37 4.49 4.96 5.36 5.65 5.94 5.97 5.89 5.98 5.99 5.80 5.65 5.56
0.05 0.04 0.03 0.04 0.06 0.11 0.16 0.21 0.33 0.48 0.48 0.58 0.71 1.11 1.23 1.20 1.23 1.44 1.77 1.90 2.26 2.43 2.56 2.49 2.63 2.99 3.42 3.77 3.98 4.14 4.42 4.76 5.23 5.83 6.25 6.53 6.83 6.94 6.71 6.43 6.25 6.00 5.78 5.62
0.06 0.04 0.04 0.06 0.07 0.08 0.15 0.16 0.25 0.33 0.44 0.67 0.71 1.31 1.49 1.43 1.51 1.63 1.81 1.87 2.11 2.11 2.32 2.44 2.48 2.71 3.04 3.33 3.67 4.03 4.36 4.98 5.86 6.52 6.92 7.26 7.36 7.32 7.16 6.90 6.45 5.93 5.56 5.23
0.09 0.06 0.07 0.06 0.04 0.05 0.08 0.11 0.18 0.22 0.33 0.55 0.63 1.14 1.50 1.47 1.66 1.81 2.01 2.04 2.04 2.07 2.00 2.10 2.19 2.38 2.76 3.09 3.44 3.88 4.26 4.94 5.64 6.28 6.82 7.23 7.37 7.31 7.09 6.63 6.05 5.43 4.95 4.53
0.08 0.06 0.05 0.04 0.03 0.04 0.06 0.13 0.22 0.30 0.49 0.78 0.64 0.97 1.58 1.76 1.92 2.07 2.06 2.12 2.33 2.27 2.10 2.09 2.06 2.14 2.36 2.69 3.03 3.48 3.90 4.43 5.06 5.53 6.09 6.40 6.55 6.44 6.05 5.54 4.92 4.50 4.16 3.83
0.12 0.08 0.05 0.05 0.06 0.07 0.09 0.23 0.57 0.73 0.83 0.89 0.63 1.03 1.78 1.98 1.92 2.05 2.14 2.24 2.39 2.35 2.26 2.15 2.09 2.08 2.18 2.41 2.71 2.99 3.22 3.69 4.03 4.40 4.88 5.15 5.12 4.93 4.65 4.38 4.14 3.75 3.31 2.93
0.22 0.18 0.09 0.07 0.09 0.10 0.11 0.21 0.60 0.94 0.88 0.84 0.93 1.59 2.17 2.05 1.86 1.83 1.96 2.09 2.16 2.07 2.06 2.04 2.01 2.07 2.12 2.09 2.29 2.47 2.55 2.77 2.99 3.19 3.41 3.48 3.43 3.36 3.35 3.23 2.95 2.64 2.28 1.96
0.31 0.25 0.11 0.07 0.06 0.07 0.12 0.20 0.26 0.48 0.59 0.92 1.43 2.02 2.41 2.12 1.99 1.94 1.83 1.71 1.88 1.88 1.84 1.88 1.97 2.06 2.05 1.93 1.91 1.98 2.02 2.03 2.10 2.18 2.31 2.34 2.30 2.32 2.32 2.29 2.15 1.93 1.77 1.56
0.26 0.25 0.14 0.08 0.07 0.09 0.12 0.17 0.27 0.48 0.95 1.24 1.59 2.13 2.64 2.57 2.46 2.41 2.15 1.84 1.89 1.90 1.89 1.82 1.78 1.86 1.91 1.77 1.74 1.81 1.84 1.70 1.64 1.59 1.59 1.56 1.65 1.70 1.73 1.69 1.58 1.52 1.46 1.35
0.23 0.26 0.21 0.13 0.15 0.18 0.17 0.22 0.31 0.51 0.74 1.19 1.84 2.46 2.43 2.67 2.75 2.57 2.24 1.91 1.90 1.84 1.87 1.88 1.80 1.71 1.69 1.65 1.66 1.56 1.54 1.51 1.43 1.37 1.36 1.30 1.28 1.31 1.30 1.21 1.14 1.15 1.14 1.10
0.24 0.29 0.33 0.21 0.17 0.17 0.21 0.24 0.30 0.62 0.75 0.88 1.60 2.51 2.44 2.70 2.82 2.60 2.46 2.21 2.02 2.02 1.94 1.85 1.77 1.66 1.65 1.55 1.51 1.44 1.39 1.32 1.26 1.27 1.30 1.20 1.12 1.11 1.16 1.11 1.03 0.97 0.95 0.94
0.25 0.43 0.65 0.72 0.56 0.32 0.25 0.23 0.28 0.38 0.58 0.91 1.57 2.48 2.52 2.56 2.46 2.36 2.25 2.21 2.30 2.48 2.27 2.01 1.83 1.57 1.45 1.33 1.24 1.22 1.22 1.18 1.17 1.22 1.28 1.27 1.17 1.10 1.07 1.03 0.94 0.86 0.87 0.87
0.23 0.45 0.83 1.28 1.01 0.52 0.35 0.32 0.35 0.43 0.75 1.07 1.38 1.99 2.30 2.44 2.46 2.50 2.47 2.45 2.37 2.15 1.83 1.65 1.55 1.37 1.25 1.17 1.15 1.10 1.05 1.04 1.04 1.09 1.19 1.23 1.18 1.09 1.00 0.98 0.97 0.90 0.86 0.82
0.29 0.52 0.58 0.59 0.50 0.39 0.38 0.37 0.43 0.51 0.63 1.01 1.29 1.79 2.25 2.45 2.56 2.43 2.46 2.36 2.02 1.79 1.68 1.58 1.52 1.47 1.32 1.18 1.08 1.00 0.96 0.96 0.94 1.01 1.07 1.06 1.03 1.01 0.92 0.88 0.90 0.85 0.83 0.79
0.34 0.61 0.57 0.53 0.45 0.48 0.56 0.55 0.58 0.58 0.68 0.94 1.31 1.88 2.19 2.40 2.51 2.42 2.41 2.23 2.08 1.95 1.84 1.75 1.70 1.62 1.45 1.22 1.11 1.04 1.02 1.01 0.99 1.00 0.99 0.93 0.87 0.84 0.78 0.76 0.73 0.70 0.73 0.79
0.42 0.66 0.78 0.71 0.47 0.70 1.15 0.89 0.78 0.88 0.89 1.16 1.59 1.86 1.81 1.91 2.05 2.15 2.21 2.19 2.09 1.99 1.94 1.90 1.87 1.80 1.63 1.43 1.32 1.23 1.15 1.06 1.02 1.03 0.93 0.87 0.85 0.81 0.75 0.70 0.70 0.69 0.72 0.76
0.44 0.70 0.80 0.83 0.95 1.61 1.56 1.00 0.88 0.98 1.11 1.10 1.27 1.38 1.43 1.48 1.66 1.77 1.86 2.05 2.14 2.07 1.99 1.94 1.86 1.76 1.67 1.54 1.37 1.20 1.05 0.99 1.02 1.01 0.92 0.83 0.81 0.82 0.79 0.80 0.82 0.80 0.77 0.79
0.33 0.62 0.89 1.08 1.44 1.71 1.58 1.11 0.99 1.29 1.62 1.20 1.12 1.13 1.13 1.18 1.41 1.74 1.84 1.99 2.17 2.06 1.98 1.92 1.80 1.70 1.63 1.47 1.27 1.11 1.06 0.98 0.96 0.93 0.84 0.75 0.72 0.77 0.75 0.75 0.79 0.80 0.83 0.86
0.30 0.52 0.97 1.28 1.78 2.05 1.87 0.96 0.70 1.20 2.10 1.34 1.08 1.12 1.24 1.39 1.77 1.79 1.61 1.62 1.83 1.89 1.99 1.94 1.72 1.55 1.45 1.24 1.05 1.00 0.99 0.92 0.87 0.78 0.73 0.66 0.68 0.72 0.71 0.71 0.75 0.81 0.84 0.84
0.68 0.81 1.07 1.41 1.86 1.93 1.19 0.67 0.81 1.85 2.14 1.47 1.28 1.29 1.41 1.60 1.70 1.44 1.24 1.31 1.46 1.64 1.73 1.65 1.51 1.41 1.21 1.03 0.95 1.00 0.92 0.82 0.70 0.62 0.64 0.67 0.72 0.76 0.71 0.74 0.79 0.81 0.81 0.85
0.92 1.22 1.38 1.59 1.99 2.03 0.95 0.74 1.26 1.55 1.20 1.09 1.05 1.05 1.18 1.16 1.06 1.02 1.08 1.20 1.35 1.47 1.48 1.40 1.35 1.25 1.13 1.02 1.01 1.07 0.98 0.78 0.66 0.66 0.69 0.71 0.73 0.62 0.58 0.75 0.78 0.75 0.81 0.85
0.80 1.08 1.34 1.62 1.85 1.51 0.93 0.92 0.98 0.96 1.03 0.97 0.96 0.90 0.97 1.00 0.98 0.98 0.99 1.13 1.23 1.29 1.27 1.16 1.07 1.09 1.09 1.08 1.08 1.10 1.00 0.82 0.76 0.83 0.82 0.76 0.74 0.73 0.75 0.77 0.73 0.71 0.74 0.69
0.79 0.67 0.93 1.23 1.19 1.04 0.90 0.85 0.81 0.78 0.82 0.76 0.76 0.79 0.91 1.04 1.05 1.07 0.99 1.01 1.08 1.09 1.07 1.04 1.01 1.04 1.03 0.98 0.91 0.95 0.87 0.80 0.85 0.88 0.82 0.76 0.77 0.83 0.82 0.74 0.61 0.58 0.55 0.52
0.86 0.99 1.28 1.50 1.25 1.12 1.01 0.86 0.75 0.69 0.63 0.60 0.64 0.70 0.82 0.97 1.00 0.99 0.99 0.96 0.91 0.87 0.87 0.90 0.95 0.92 0.86 0.81 0.73 0.74 0.74 0.74 0.88 0.90 0.82 0.75 0.68 0.70 0.72 0.58 0.44 0.42 0.40 0.38
0.76 1.20 1.77 1.61 1.29 1.38 1.16 0.88 0.73 0.72 0.77 0.72 0.63 0.59 0.64 0.76 0.82 0.86 0.90 0.83 0.75 0.72 0.73 0.78 0.81 0.77 0.74 0.72 0.68 0.68 0.64 0.63 0.79 0.84 0.78 0.68 0.56 0.52 0.48 0.44 0.42 0.36 0.31 0.32